This is the latest recevied weather packets stored in our database for station/object K1BES. If no packets are shown the sender has not sent any weather packets the latest 10 day(s).
| Time | Temp. | Humidity | Pressure | Rain* | Wind** | Luminosity | Snow |
|---|---|---|---|---|---|---|---|
| 1777328982 | 26.11° C | 81% | 1016.9 hPa | 0 mm | - | 108 W/m² | - |
| 1777328680 | 26.11° C | 81% | 1016.8 hPa | 0 mm | - | 121 W/m² | - |
| 1777328377 | 26.11° C | 82% | 1016.6 hPa | 0 mm | - | 114 W/m² | - |
| 1777328076 | 26.11° C | 82% | 1016.9 hPa | 0 mm | - | 128 W/m² | - |
| 1777327774 | 26.11° C | 81% | 1016.7 hPa | 0 mm | - | 121 W/m² | - |
| 1777327471 | 26.11° C | 80% | 1016.7 hPa | 0 mm | - | 106 W/m² | - |
| 1777327168 | 26.11° C | 78% | 1016.8 hPa | 0 mm | - | 110 W/m² | - |
| 1777326865 | 26.67° C | 76% | 1017 hPa | 0 mm | - | 90 W/m² | - |
| 1777326562 | 27.22° C | 72% | 1016.7 hPa | 0 mm | - | 71 W/m² | - |
| 1777326259 | 27.22° C | 72% | 1016.7 hPa | 0 mm | - | 95 W/m² | - |
| 1777325957 | 27.22° C | 74% | 1016.7 hPa | 0 mm | - | 129 W/m² | - |
| 1777325655 | 27.22° C | 76% | 1016.6 hPa | 0 mm | - | 128 W/m² | - |
| 1777325353 | 27.22° C | 76% | 1016.5 hPa | 0 mm | - | 147 W/m² | - |
| 1777325051 | 27.78° C | 75% | 1016.6 hPa | 0 mm | - | 136 W/m² | - |
| 1777324746 | 27.78° C | 74% | 1016.6 hPa | 0 mm | - | 145 W/m² | - |
| 1777324444 | 27.22° C | 74% | 1016.4 hPa | 0 mm | - | 188 W/m² | - |
| 1777324141 | 27.78° C | 72% | 1016.4 hPa | 0 mm | - | 139 W/m² | - |
| 1777323840 | 27.78° C | 73% | 1016.6 hPa | 0 mm | - | 178 W/m² | - |
| 1777323536 | 27.78° C | 74% | 1016.3 hPa | 0 mm | - | 142 W/m² | - |
| 1777323233 | 27.22° C | 76% | 1016.6 hPa | 0 mm | - | 159 W/m² | - |
| 1777322930 | 27.22° C | 77% | 1016.5 hPa | 0 mm | - | 191 W/m² | - |
| 1777322629 | 26.67° C | 77% | 1016.4 hPa | 0 mm | - | 225 W/m² | - |
| 1777322326 | 26.67° C | 78% | 1016.6 hPa | 0 mm | - | 223 W/m² | - |
| 1777322023 | 26.67° C | 79% | 1016.5 hPa | 0 mm | - | 178 W/m² | - |
| 1777321720 | 26.67° C | 78% | 1016.3 hPa | 0 mm | - | 158 W/m² | - |
* Rain latest hour (hover to see other rain measurements)
** Current wind speed in m/s (hover to see current wind gust speed)